Regional Weather Roundup
Issued by NWS

Home | Current Version | Previous Version | Text Only | Print | Product List | Glossary Off
Versions: 1 2 3 4 5 6 7 8 9 10 11 12 13 14 15 16 17 18 19 20 21 22 23 24 25 26 27 28 29 30 31 32 33 34 35 36 37 38 39 40 41 42 43 44 45 46 47 48 49 50

463
ASUS45 KTFX 211010
RWRMT
MONTANA REGIONAL WEATHER ROUNDUP
NATIONAL WEATHER SERVICE GREAT FALLS MT
400 AM MDT SAT APR 21 2018

NOTE: "FAIR" INDICATES FEW OR NO CLOUDS BELOW 12000 FEET WITH NO
SIGNIFICANT WEATHER AND/OR OBSTRUCTIONS TO VISIBILITY.

MTZ001>007-043-211100-
WEST OF THE DIVIDE

CITY           SKY/WX    TMP DP  RH WIND       PRES   REMARKS
KALISPELL      CLOUDY    36  33  89 N3        30.05F
MISSOULA       FAIR      36  28  73 CALM      30.11F
BUTTE          FAIR      29  23  78 SE3       30.14F
MULLAN PASS    CLOUDY    39  30  70 SW10G18   30.09F
ANACONDA         N/A     36  21  55 S8        30.12S WCI  29
DEER LODGE       N/A     28  25  86 CALM      30.14S
HAMILTON         N/A     43  27  52 MISG      30.12S
RONAN            N/A     39  34  81 CALM      30.08F
$$

MTZ008-052>055-211100-
SOUTHWEST MONTANA

CITY           SKY/WX    TMP DP  RH WIND       PRES   REMARKS
BOZEMAN        FAIR      35  27  72 S3        30.12R
DILLON         FAIR      32  26  78 S14       30.13S WCI  22
ENNIS          FAIR      28  23  80 CALM      30.17S
W YELLOWSTONE  FAIR      23  23 100 CALM      30.16S
THREE FORKS      N/A     32  29  89 CALM      30.09S
$$

MTZ009-010-012-014-046-048-049-054-211100-
EAST SLOPES AND CENTRAL MONTANA

CITY           SKY/WX    TMP DP  RH WIND       PRES   REMARKS
CUT BANK       FAIR      38  28  67 SW8       29.99F
GREAT FALLS    FAIR      38  25  59 S9        30.02F WCI  31
HELENA         FAIR      38  28  67 CALM      30.08F
AUGUSTA        FAIR      38  24  58 CALM      30.02F
BOWMANS CRNR   FAIR      37  23  55 S10       30.01F WCI  30
CHOTEAU          N/A     41  27  56 SW7       30.03F
FAIRFIELD      FAIR      41  24  51 CALM      30.01F
POWER          FAIR      34  26  71 W8        30.01F WCI  27
RAYNESFORD     FAIR      46  27  46 S10       30.04F
ULM            FAIR      40  25  54 S8        30.03F
WHITE SULPHUR    N/A     28  25  86 E7        30.09F WCI  21
$$

MTZ011-013-016-021-045-047-050-051-211100-
NORTH CENTRAL MONTANA

CITY           SKY/WX    TMP DP  RH WIND       PRES   REMARKS
HAVRE          FAIR      36  32  85 CALM      29.99F
LEWISTOWN      FAIR      37  30  75 SE5       30.06F
N BAR RANCH    FAIR      41  30  65 N5        30.10F
CHINOOK          N/A     41  39  93 E3        30.00F
GEYSER         FAIR      40  28  62 SW10      30.04F
GRASS RANGE    FAIR      43  34  68 W6        30.03F
STANFORD       FAIR      42  30  62 W13       30.05F
$$

MTZ017>020-022>027-061-062-211100-
NORTHEAST MONTANA

CITY           SKY/WX    TMP DP  RH WIND       PRES   REMARKS
GLASGOW        FAIR      41  35  79 E10       30.05F
GLENDIVE       FAIR      38  36  92 S10       30.12S WCI  31
JORDAN           N/A     36  33  89 CALM      30.06S
MALTA          CLEAR     41  39  93 E6        30.02F
SIDNEY         FAIR      36  33  89 S7        30.14S WCI  30
WOLF POINT     FAIR      37  33  85 E7        30.10R WCI  32
PLENTYWOOD       N/A     37  37 100 SE9       30.11S WCI  31
POPLAR           N/A     37  36  93 E5        30.11S
$$

MTZ028>42-056>058-211100-
SOUTHCENTRAL AND SOUTHEAST MONTANA

CITY           SKY/WX    TMP DP  RH WIND       PRES   REMARKS
BAKER          MOCLDY    37  37 100 S17       30.15S WCI  27
BILLINGS       FAIR      43  35  73 SW5       30.07F
LIVINGSTON     FAIR      31  28  89 NW7       30.11S WCI  24
MILES CITY     FAIR      40  37  89 SE10      30.09R
BIG TIMBER     CLEAR     37  30  75 W10       30.11F WCI  30
FORSYTH          N/A     43  37  81 CALM      30.06S
HARLOWTON      FAIR      35  31  85 W10       30.10F WCI  27
LAUREL           N/A     39  34  81 W5        30.09S
$$

REGIONAL REPORTS...DAKOTAS

CITY           SKY/WX    TMP DP  RH WIND       PRES   REMARKS
WILLISTON      FAIR      41  36  82 S7        30.14F
MINOT          FAIR      43  36  76 S6        30.20R
DICKINSON      FAIR      36  35  96 S14       30.17S WCI  27
BEACH          MOCLDY    39  39 100 S17G24    30.17S WCI  30
CROSBY         FAIR      39  39 100 S20G25    30.13S WCI  30
TIOGA          FAIR      37  37 100 S10       30.17S WCI  30
WATFORD CITY   FAIR      39  37  93 S8        30.15S
BISMARCK       FAIR      36  34  92 SE8       30.27S WCI  30
GRAND FORKS    FAIR      34  34 100 S10       30.33F WCI  26
FARGO          FAIR      35  32  88 S8        30.36S WCI  29
BUFFALO SD       N/A     41  36  82 S20       30.13R
RAPID CITY     CLOUDY    38  37  97 S12       30.23S WCI  30
$$

REGIONAL REPORTS...WYOMING/IDAHO/WASHINGTON

CITY           SKY/WX    TMP DP  RH WIND       PRES   REMARKS
GILLETTE       CLOUDY    38  34  85 S15       30.15S WCI  29
SHERIDAN       FAIR      37  32  82 S3        30.10S
BUFFALO WY     FAIR      35  33  92 S8        30.12F WCI  29
CODY           FAIR      41  30  65 SW7       30.12S
YELLOWSTONE LA   N/A     22  19  89 CALM      30.22S
IDAHO FALLS    FAIR      38  28  67 SW6       30.15S
SALMON         FAIR      34  28  79 CALM      30.16R
BOISE          FAIR      46  33  60 SE10      30.11F
SPOKANE        CLOUDY    53  31  42 S7        30.06F
$$

REGIONAL REPORTS...ALBERTA

CITY           SKY/WX    TMP DP  RH WIND       PRES   REMARKS
CALGARY        MOCLDY    41  27  56 SW7       29.85F
CARDSTON         N/A     46  27  46 SW7         N/A
EDMONTON       CLEAR     45  23  42 S13       29.83F
FORT MCMURRAY  CLOUDY    39  27  60 E5        29.90F
HIGH LEVEL     CLEAR     28  23  80 CALM      29.80F
LETHBRIDGE     PTCLDY    41  32  70 S10       29.92F
LLOYDMINSTER   MOCLDY    37  34  87 SE5       29.92F
MEDICINE HAT   CLEAR     41  32  70 SW8       29.93F
ONEFOUR          N/A     37  27  65 E8          N/A  WCI  31
PEACE RIVER    MOCLDY    37  27  65 N7        29.80F
PINCHER CREEK  CLOUDY    45  27  49 CALM      29.93F
WATERTON GATE    N/A     48  27  43 SW20G28     N/A
$$

REGIONAL REPORTS...SASKATCHEWAN

CITY           SKY/WX    TMP DP  RH WIND       PRES   REMARKS
CORONACH         N/A     39  34  81 SE8         N/A
CYPRESS HILLS    N/A     41  23  48 S8          N/A
ESTEVAN        PTCLDY    41  36  81 S10       30.13F
MOOSE JAW        N/A     37  34  87 SE10        N/A  WCI  30
PRINCE ALBERT  MOCLDY    32  28  86 E9        29.99F WCI  24
REGINA         PTCLDY    34  32  93 SE12      30.07S WCI  25
ROCKGLEN         N/A     39  32  75 S10         N/A
SASKATOON      PTCLDY    39  36  87 SW8       29.96F
SWIFT CURRENT  CLEAR     39  28  65 S12       29.98F WCI  32
VAL MARIE        N/A     34  30  86 NE2         N/A
$$




USA.gov is the U.S. government's official web portal to all federal, state and local government web resources and services.